Tracking 30703 objects as of 13-Jun-2025
HD Live streaming from Space Station
objects crossing your sky now

STARLINK-6082

Track STARLINK-6082 now!
10-day predictions
STARLINK-6082 is classified as:


NORAD ID: 56110
Int'l Code: 2023-046T
Perigee: 565.3 km
Apogee: 567.0 km
Inclination: 43.0 °
Period: 95.8 minutes
Semi major axis: 6937 km
RCS: Unknown
Launch date: March 29, 2023
Source: United States (US)
Launch site: AIR FORCE EASTERN TEST RANGE (AFETR)
Your satellite tracking list
Your tracking list is empty




NASA's NSSDC Master Catalog

Two Line Element Set (TLE):
1 56110U 23046T   25163.46099053  .00000006  00000-0  15548-4 0  9994
2 56110  43.0026 187.2053 0001230 300.6769  59.3952 15.02544711121415
Source of the keplerian elements: AFSPC